owner,sensor,date,latitude,longitude,vertical_datum,sea_water_practical_salinity,qcFlag 
NERRS,ioos:station:NOAA.NERRS:gndbcwq:1,2016-02-01T16:00:00Z,30.3836,-88.4364,0.63,9.7,1111122 
NERRS,ioos:station:NOAA.NERRS:gndbcwq:1,2016-02-01T17:00:00Z,30.3836,-88.4364,0.64,10.3,1111122 
NERRS,ioos:station:NOAA.NERRS:gndbcwq:1,2016-02-01T18:00:00Z,30.3836,-88.4364,0.67,10.6,1111122 
NERRS,ioos:station:NOAA.NERRS:gndbcwq:1,2016-02-01T19:00:00Z,30.3836,-88.4364,0.7,11.4,1111122 
NERRS,ioos:station:NOAA.NERRS:gndbcwq:1,2016-02-01T20:00:00Z,30.3836,-88.4364,0.71,12.4,1111122 
NERRS,ioos:station:NOAA.NERRS:gndbcwq:1,2016-02-01T21:00:00Z,30.3836,-88.4364,0.7,12.9,1111122 
NERRS,ioos:station:NOAA.NERRS:gndbcwq:1,2016-02-01T22:00:00Z,30.3836,-88.4364,0.69,13.3,1111122 
NERRS,ioos:station:NOAA.NERRS:gndbcwq:1,2016-02-01T23:00:00Z,30.3836,-88.4364,0.7,15.2,1111122 
NERRS,ioos:station:NOAA.NERRS:gndbcwq:1,2016-02-02T00:00:00Z,30.3836,-88.4364,0.69,13.8,1111122 
NERRS,ioos:station:NOAA.NERRS:gndbcwq:1,2016-02-02T01:00:00Z,30.3836,-88.4364,0.69,16.6,1111122 
NERRS,ioos:station:NOAA.NERRS:gndbcwq:1,2016-02-02T02:00:00Z,30.3836,-88.4364,0.68,17.1,1111122 
NERRS,ioos:station:NOAA.NERRS:gndbcwq:1,2016-02-02T03:00:00Z,30.3836,-88.4364,0.67,15.5,1111122 
NERRS,ioos:station:NOAA.NERRS:gndbcwq:1,2016-02-02T04:00:00Z,30.3836,-88.4364,0.62,15.7,1111122 
NERRS,ioos:station:NOAA.NERRS:gndbcwq:1,2016-02-02T05:00:00Z,30.3836,-88.4364,0.59,13.4,1111122 
NERRS,ioos:station:NOAA.NERRS:gndbcwq:1,2016-02-02T06:00:00Z,30.3836,-88.4364,0.57,13.1,1111122 
NERRS,ioos:station:NOAA.NERRS:gndbcwq:1,2016-02-02T07:00:00Z,30.3836,-88.4364,0.56,12.7,1111122 
NERRS,ioos:station:NOAA.NERRS:gndbcwq:1,2016-02-02T08:00:00Z,30.3836,-88.4364,0.53,12.6,1111122 
NERRS,ioos:station:NOAA.NERRS:gndbcwq:1,2016-02-02T09:00:00Z,30.3836,-88.4364,0.53,12.1,1111122 
NERRS,ioos:station:NOAA.NERRS:gndbcwq:1,2016-02-02T10:00:00Z,30.3836,-88.4364,0.53,11.7,1111122 
NERRS,ioos:station:NOAA.NERRS:gndbcwq:1,2016-02-02T11:00:00Z,30.3836,-88.4364,0.54,11.5,1111122 
NERRS,ioos:station:NOAA.NERRS:gndbcwq:1,2016-02-02T12:00:00Z,30.3836,-88.4364,0.57,10.5,1111122 
NERRS,ioos:station:NOAA.NERRS:gndbcwq:1,2016-02-02T13:00:00Z,30.3836,-88.4364,0.62,9.8,1111122 
NERRS,ioos:station:NOAA.NERRS:gndbcwq:1,2016-02-02T14:00:00Z,30.3836,-88.4364,0.66,10.5,1111122 
NERRS,ioos:station:NOAA.NERRS:gndbcwq:1,2016-02-02T15:00:00Z,30.3836,-88.4364,0.69,11.4,1111122 
NERRS,ioos:station:NOAA.NERRS:gndbcwq:1,2016-02-02T18:00:00Z,30.3836,-88.4364,0.81,16.1,1111122 
NERRS,ioos:station:NOAA.NERRS:gndbcwq:1,2016-02-02T19:00:00Z,30.3836,-88.4364,0.84,17.7,1111122 
NERRS,ioos:station:NOAA.NERRS:gndbcwq:1,2016-02-02T20:00:00Z,30.3836,-88.4364,0.86,17.9,1111122 
NERRS,ioos:station:NOAA.NERRS:gndbcwq:1,2016-02-02T21:00:00Z,30.3836,-88.4364,0.91,18.2,1111122 
NERRS,ioos:station:NOAA.NERRS:gndbcwq:1,2016-02-02T22:00:00Z,30.3836,-88.4364,0.94,18.3,1111122 
NERRS,ioos:station:NOAA.NERRS:gndbcwq:1,2016-02-02T23:00:00Z,30.3836,-88.4364,1.0,17.8,1111122 
NERRS,ioos:station:NOAA.NERRS:gndbcwq:1,2016-02-03T00:00:00Z,30.3836,-88.4364,1.04,17.3,1111122 
NERRS,ioos:station:NOAA.NERRS:gndbcwq:1,2016-02-03T01:00:00Z,30.3836,-88.4364,1.03,17.2,1111122 
NERRS,ioos:station:NOAA.NERRS:gndbcwq:1,2016-02-03T02:00:00Z,30.3836,-88.4364,0.99,17.4,1111122 
NERRS,ioos:station:NOAA.NERRS:gndbcwq:1,2016-02-03T03:00:00Z,30.3836,-88.4364,0.95,17.7,1111122 
NERRS,ioos:station:NOAA.NERRS:gndbcwq:1,2016-02-03T04:00:00Z,30.3836,-88.4364,0.9,17.7,1111122 
NERRS,ioos:station:NOAA.NERRS:gndbcwq:1,2016-02-03T05:00:00Z,30.3836,-88.4364,0.85,17.4,1111122 
NERRS,ioos:station:NOAA.NERRS:gndbcwq:1,2016-02-03T06:00:00Z,30.3836,-88.4364,0.78,17.0,1111122 
NERRS,ioos:station:NOAA.NERRS:gndbcwq:1,2016-02-03T07:00:00Z,30.3836,-88.4364,0.71,16.2,1111122 
NERRS,ioos:station:NOAA.NERRS:gndbcwq:1,2016-02-03T08:00:00Z,30.3836,-88.4364,0.65,15.5,1111122 
NERRS,ioos:station:NOAA.NERRS:gndbcwq:1,2016-02-03T09:00:00Z,30.3836,-88.4364,0.61,14.7,1111122 
NERRS,ioos:station:NOAA.NERRS:gndbcwq:1,2016-02-03T10:00:00Z,30.3836,-88.4364,0.57,14.1,1111122 
NERRS,ioos:station:NOAA.NERRS:gndbcwq:1,2016-02-03T11:00:00Z,30.3836,-88.4364,0.56,13.4,1111122 
NERRS,ioos:station:NOAA.NERRS:gndbcwq:1,2016-02-03T12:00:00Z,30.3836,-88.4364,0.49,13.0,1111122 
NERRS,ioos:station:NOAA.NERRS:gndbcwq:1,2016-02-03T13:00:00Z,30.3836,-88.4364,0.41,12.4,1111122 
NERRS,ioos:station:NOAA.NERRS:gndbcwq:1,2016-02-03T14:00:00Z,30.3836,-88.4364,0.43,10.2,1111122 
NERRS,ioos:station:NOAA.NERRS:gndbcwq:1,2016-02-03T15:00:00Z,30.3836,-88.4364,0.38,9.8,1111122 
NERRS,ioos:station:NOAA.NERRS:gndbcwq:1,2016-02-03T16:00:00Z,30.3836,-88.4364,0.48,10.6,1111122 
NERRS,ioos:station:NOAA.NERRS:gndbcwq:1,2016-02-03T17:00:00Z,30.3836,-88.4364,0.61,11.1,1111122 
NERRS,ioos:station:NOAA.NERRS:gndbcwq:1,2016-02-03T18:00:00Z,30.3836,-88.4364,0.68,11.8,1111122 
NERRS,ioos:station:NOAA.NERRS:gndbcwq:1,2016-02-03T19:00:00Z,30.3836,-88.4364,0.71,12.1,1111122 
NERRS,ioos:station:NOAA.NERRS:gndbcwq:1,2016-02-03T20:00:00Z,30.3836,-88.4364,0.73,12.6,1111122 
NERRS,ioos:station:NOAA.NERRS:gndbcwq:1,2016-02-03T21:00:00Z,30.3836,-88.4364,0.78,13.2,1111122 
NERRS,ioos:station:NOAA.NERRS:gndbcwq:1,2016-02-03T22:00:00Z,30.3836,-88.4364,0.85,14.4,1111122 
NERRS,ioos:station:NOAA.NERRS:gndbcwq:1,2016-02-03T23:00:00Z,30.3836,-88.4364,0.9,15.6,1111122 
NERRS,ioos:station:NOAA.NERRS:gndbcwq:1,2016-02-04T00:00:00Z,30.3836,-88.4364,0.95,16.1,1111122 
NERRS,ioos:station:NOAA.NERRS:gndbcwq:1,2016-02-04T01:00:00Z,30.3836,-88.4364,0.95,16.1,1111122 
NERRS,ioos:station:NOAA.NERRS:gndbcwq:1,2016-02-04T02:00:00Z,30.3836,-88.4364,0.92,16.0,1111122 
NERRS,ioos:station:NOAA.NERRS:gndbcwq:1,2016-02-04T03:00:00Z,30.3836,-88.4364,0.87,13.7,1111122 
NERRS,ioos:station:NOAA.NERRS:gndbcwq:1,2016-02-04T04:00:00Z,30.3836,-88.4364,0.82,14.4,1111122 
NERRS,ioos:station:NOAA.NERRS:gndbcwq:1,2016-02-04T05:00:00Z,30.3836,-88.4364,0.76,13.7,1111122 
NERRS,ioos:station:NOAA.NERRS:gndbcwq:1,2016-02-04T06:00:00Z,30.3836,-88.4364,0.67,12.9,1111122 
NERRS,ioos:station:NOAA.NERRS:gndbcwq:1,2016-02-04T07:00:00Z,30.3836,-88.4364,0.55,12.1,1111122 
NERRS,ioos:station:NOAA.NERRS:gndbcwq:1,2016-02-04T08:00:00Z,30.3836,-88.4364,0.42,11.6,1111122 
NERRS,ioos:station:NOAA.NERRS:gndbcwq:1,2016-02-04T09:00:00Z,30.3836,-88.4364,0.36,7.8,1111122 
NERRS,ioos:station:NOAA.NERRS:gndbcwq:1,2016-02-04T10:00:00Z,30.3836,-88.4364,0.32,7.0,1111122 
NERRS,ioos:station:NOAA.NERRS:gndbcwq:1,2016-02-04T11:00:00Z,30.3836,-88.4364,0.26,6.1,1111122 
NERRS,ioos:station:NOAA.NERRS:gndbcwq:1,2016-02-04T11:45:00Z,30.3836,-88.4364,0.23,5.2,1111122 
NERRS,ioos:station:NOAA.NERRS:gndbcwq:1,2016-02-04T14:00:00Z,30.3836,-88.4364,0.33,5.2,1111122 
NERRS,ioos:station:NOAA.NERRS:gndbcwq:1,2016-02-04T15:00:00Z,30.3836,-88.4364,0.38,6.2,1111122 
NERRS,ioos:station:NOAA.NERRS:gndbcwq:1,2016-02-04T16:00:00Z,30.3836,-88.4364,0.44,6.5,1111122 
NERRS,ioos:station:NOAA.NERRS:gndbcwq:1,2016-02-04T17:00:00Z,30.3836,-88.4364,0.5,6.7,1111122 
NERRS,ioos:station:NOAA.NERRS:gndbcwq:1,2016-02-04T18:00:00Z,30.3836,-88.4364,0.58,8.6,1111122 
NERRS,ioos:station:NOAA.NERRS:gndbcwq:1,2016-02-04T19:00:00Z,30.3836,-88.4364,0.6,8.5,1111122 
NERRS,ioos:station:NOAA.NERRS:gndbcwq:1,2016-02-04T20:00:00Z,30.3836,-88.4364,0.61,7.6,1111122 
NERRS,ioos:station:NOAA.NERRS:gndbcwq:1,2016-02-04T21:00:00Z,30.3836,-88.4364,0.59,6.6,1111122 
NERRS,ioos:station:NOAA.NERRS:gndbcwq:1,2016-02-04T22:00:00Z,30.3836,-88.4364,0.61,7.1,1111122 
NERRS,ioos:station:NOAA.NERRS:gndbcwq:1,2016-02-04T23:00:00Z,30.3836,-88.4364,0.61,6.7,1111122 
NERRS,ioos:station:NOAA.NERRS:gndbcwq:1,2016-02-05T00:00:00Z,30.3836,-88.4364,0.61,6.8,1111122 
NERRS,ioos:station:NOAA.NERRS:gndbcwq:1,2016-02-05T01:00:00Z,30.3836,-88.4364,0.63,7.0,1111122 
NERRS,ioos:station:NOAA.NERRS:gndbcwq:1,2016-02-05T02:00:00Z,30.3836,-88.4364,0.64,8.0,1111122 
NERRS,ioos:station:NOAA.NERRS:gndbcwq:1,2016-02-05T03:00:00Z,30.3836,-88.4364,0.57,6.5,1111122 
NERRS,ioos:station:NOAA.NERRS:gndbcwq:1,2016-02-05T04:00:00Z,30.3836,-88.4364,0.51,5.9,1111122 
NERRS,ioos:station:NOAA.NERRS:gndbcwq:1,2016-02-05T05:00:00Z,30.3836,-88.4364,0.48,6.0,1111122 
NERRS,ioos:station:NOAA.NERRS:gndbcwq:1,2016-02-05T06:00:00Z,30.3836,-88.4364,0.41,5.5,1111122 
NERRS,ioos:station:NOAA.NERRS:gndbcwq:1,2016-02-05T07:00:00Z,30.3836,-88.4364,0.36,4.7,1111122 
NERRS,ioos:station:NOAA.NERRS:gndbcwq:1,2016-02-05T08:00:00Z,30.3836,-88.4364,0.31,4.3,1111122 
NERRS,ioos:station:NOAA.NERRS:gndbcwq:1,2016-02-05T10:00:00Z,30.3836,-88.4364,0.21,3.4,1111122 
NERRS,ioos:station:NOAA.NERRS:gndbcwq:1,2016-02-05T11:00:00Z,30.3836,-88.4364,0.2,2.9,1111122 
NERRS,ioos:station:NOAA.NERRS:gndbcwq:1,2016-02-05T12:00:00Z,30.3836,-88.4364,0.23,2.9,1111122 
NERRS,ioos:station:NOAA.NERRS:gndbcwq:1,2016-02-05T13:00:00Z,30.3836,-88.4364,0.27,2.8,1111122 
NERRS,ioos:station:NOAA.NERRS:gndbcwq:1,2016-02-05T14:00:00Z,30.3836,-88.4364,0.3,3.0,1111122 
NERRS,ioos:station:NOAA.NERRS:gndbcwq:1,2016-02-05T15:00:00Z,30.3836,-88.4364,0.36,4.7,1111122 
NERRS,ioos:station:NOAA.NERRS:gndbcwq:1,2016-02-05T16:00:00Z,30.3836,-88.4364,0.41,11.0,1111122 
NERRS,ioos:station:NOAA.NERRS:gndbcwq:1,2016-02-05T17:00:00Z,30.3836,-88.4364,0.47,10.3,1111122 
NERRS,ioos:station:NOAA.NERRS:gndbcwq:1,2016-02-05T18:00:00Z,30.3836,-88.4364,0.5,12.0,1111122 
NERRS,ioos:station:NOAA.NERRS:gndbcwq:1,2016-02-05T19:00:00Z,30.3836,-88.4364,0.53,13.5,1111122 
NERRS,ioos:station:NOAA.NERRS:gndbcwq:1,2016-02-05T20:00:00Z,30.3836,-88.4364,0.57,13.1,1111122 
NERRS,ioos:station:NOAA.NERRS:gndbcwq:1,2016-02-05T21:00:00Z,30.3836,-88.4364,0.62,14.4,1111122 
NERRS,ioos:station:NOAA.NERRS:gndbcwq:1,2016-02-05T23:00:00Z,30.3836,-88.4364,0.68,17.3,1111122 
NERRS,ioos:station:NOAA.NERRS:gndbcwq:1,2016-02-06T00:00:00Z,30.3836,-88.4364,0.72,20.1,1111122 
NERRS,ioos:station:NOAA.NERRS:gndbcwq:1,2016-02-06T01:00:00Z,30.3836,-88.4364,0.71,19.8,1111122 
NERRS,ioos:station:NOAA.NERRS:gndbcwq:1,2016-02-06T02:00:00Z,30.3836,-88.4364,0.67,20.3,1111122 
NERRS,ioos:station:NOAA.NERRS:gndbcwq:1,2016-02-06T03:00:00Z,30.3836,-88.4364,0.64,14.4,1111122 
NERRS,ioos:station:NOAA.NERRS:gndbcwq:1,2016-02-06T04:00:00Z,30.3836,-88.4364,0.62,15.4,1111122 
NERRS,ioos:station:NOAA.NERRS:gndbcwq:1,2016-02-06T05:00:00Z,30.3836,-88.4364,0.55,14.4,1111122 
NERRS,ioos:station:NOAA.NERRS:gndbcwq:1,2016-02-06T06:00:00Z,30.3836,-88.4364,0.49,14.6,1111122 
NERRS,ioos:station:NOAA.NERRS:gndbcwq:1,2016-02-06T07:00:00Z,30.3836,-88.4364,0.4,5.2,1111122 
NERRS,ioos:station:NOAA.NERRS:gndbcwq:1,2016-02-06T08:00:00Z,30.3836,-88.4364,0.32,4.8,1111122 
NERRS,ioos:station:NOAA.NERRS:gndbcwq:1,2016-02-06T09:00:00Z,30.3836,-88.4364,0.24,5.8,1111122 
NERRS,ioos:station:NOAA.NERRS:gndbcwq:1,2016-02-06T10:00:00Z,30.3836,-88.4364,0.18,4.8,1111122 
NERRS,ioos:station:NOAA.NERRS:gndbcwq:1,2016-02-06T11:00:00Z,30.3836,-88.4364,0.18,4.9,1111122 
NERRS,ioos:station:NOAA.NERRS:gndbcwq:1,2016-02-06T12:00:00Z,30.3836,-88.4364,0.22,4.8,1111122 
NERRS,ioos:station:NOAA.NERRS:gndbcwq:1,2016-02-06T13:00:00Z,30.3836,-88.4364,0.25,4.9,1111122 
NERRS,ioos:station:NOAA.NERRS:gndbcwq:1,2016-02-06T14:00:00Z,30.3836,-88.4364,0.28,6.1,1111122 
NERRS,ioos:station:NOAA.NERRS:gndbcwq:1,2016-02-06T15:00:00Z,30.3836,-88.4364,0.31,8.9,1111122 
NERRS,ioos:station:NOAA.NERRS:gndbcwq:1,2016-02-06T16:00:00Z,30.3836,-88.4364,0.33,15.7,1111122 
NERRS,ioos:station:NOAA.NERRS:gndbcwq:1,2016-02-06T17:00:00Z,30.3836,-88.4364,0.37,18.6,1111122 
NERRS,ioos:station:NOAA.NERRS:gndbcwq:1,2016-02-06T18:00:00Z,30.3836,-88.4364,0.45,16.1,1111122 
NERRS,ioos:station:NOAA.NERRS:gndbcwq:1,2016-02-06T19:00:00Z,30.3836,-88.4364,0.5,15.7,1111122 
NERRS,ioos:station:NOAA.NERRS:gndbcwq:1,2016-02-06T20:00:00Z,30.3836,-88.4364,0.54,17.5,1111122 
NERRS,ioos:station:NOAA.NERRS:gndbcwq:1,2016-02-06T21:00:00Z,30.3836,-88.4364,0.64,17.6,1111122 
NERRS,ioos:station:NOAA.NERRS:gndbcwq:1,2016-02-06T22:00:00Z,30.3836,-88.4364,0.65,18.2,1111122 
NERRS,ioos:station:NOAA.NERRS:gndbcwq:1,2016-02-06T23:00:00Z,30.3836,-88.4364,0.68,18.6,1111122 
NERRS,ioos:station:NOAA.NERRS:gndbcwq:1,2016-02-07T00:00:00Z,30.3836,-88.4364,0.72,18.3,1111122 
NERRS,ioos:station:NOAA.NERRS:gndbcwq:1,2016-02-07T01:00:00Z,30.3836,-88.4364,0.74,18.8,1111122 
NERRS,ioos:station:NOAA.NERRS:gndbcwq:1,2016-02-07T02:00:00Z,30.3836,-88.4364,0.75,19.5,1111122 
NERRS,ioos:station:NOAA.NERRS:gndbcwq:1,2016-02-07T03:00:00Z,30.3836,-88.4364,0.71,18.9,1111122 
NERRS,ioos:station:NOAA.NERRS:gndbcwq:1,2016-02-07T04:00:00Z,30.3836,-88.4364,0.66,16.2,1111122 
NERRS,ioos:station:NOAA.NERRS:gndbcwq:1,2016-02-07T05:00:00Z,30.3836,-88.4364,0.62,16.8,1111122 
NERRS,ioos:station:NOAA.NERRS:gndbcwq:1,2016-02-07T06:00:00Z,30.3836,-88.4364,0.53,11.2,1111122 
NERRS,ioos:station:NOAA.NERRS:gndbcwq:1,2016-02-07T07:00:00Z,30.3836,-88.4364,0.44,9.0,1111122 
NERRS,ioos:station:NOAA.NERRS:gndbcwq:1,2016-02-07T08:00:00Z,30.3836,-88.4364,0.34,9.3,1111122 
NERRS,ioos:station:NOAA.NERRS:gndbcwq:1,2016-02-07T09:00:00Z,30.3836,-88.4364,0.24,8.8,1111122 
NERRS,ioos:station:NOAA.NERRS:gndbcwq:1,2016-02-07T10:00:00Z,30.3836,-88.4364,0.17,8.5,1111122 
NERRS,ioos:station:NOAA.NERRS:gndbcwq:1,2016-02-07T11:00:00Z,30.3836,-88.4364,0.14,8.5,1111122 
NERRS,ioos:station:NOAA.NERRS:gndbcwq:1,2016-02-07T12:00:00Z,30.3836,-88.4364,0.15,8.1,1111122 
NERRS,ioos:station:NOAA.NERRS:gndbcwq:1,2016-02-07T13:00:00Z,30.3836,-88.4364,0.15,8.3,1111122 
NERRS,ioos:station:NOAA.NERRS:gndbcwq:1,2016-02-07T14:00:00Z,30.3836,-88.4364,0.15,8.6,1111122 
NERRS,ioos:station:NOAA.NERRS:gndbcwq:1,2016-02-07T15:00:00Z,30.3836,-88.4364,0.15,8.5,1111122 
NERRS,ioos:station:NOAA.NERRS:gndbcwq:1,2016-02-07T16:00:00Z,30.3836,-88.4364,0.22,10.7,1111122 
NERRS,ioos:station:NOAA.NERRS:gndbcwq:1,2016-02-07T17:00:00Z,30.3836,-88.4364,0.29,15.2,1111122 
NERRS,ioos:station:NOAA.NERRS:gndbcwq:1,2016-02-07T18:00:00Z,30.3836,-88.4364,0.35,15.9,1111122 
NERRS,ioos:station:NOAA.NERRS:gndbcwq:1,2016-02-07T19:00:00Z,30.3836,-88.4364,0.4,16.3,1111122 
NERRS,ioos:station:NOAA.NERRS:gndbcwq:1,2016-02-07T20:00:00Z,30.3836,-88.4364,0.41,15.9,1111122 
NERRS,ioos:station:NOAA.NERRS:gndbcwq:1,2016-02-07T21:00:00Z,30.3836,-88.4364,0.44,16.6,1111122 
NERRS,ioos:station:NOAA.NERRS:gndbcwq:1,2016-02-07T22:00:00Z,30.3836,-88.4364,0.53,15.0,1111122 
NERRS,ioos:station:NOAA.NERRS:gndbcwq:1,2016-02-07T23:00:00Z,30.3836,-88.4364,0.6,17.4,1111122 
NERRS,ioos:station:NOAA.NERRS:gndbcwq:1,2016-02-08T00:00:00Z,30.3836,-88.4364,0.68,17.0,1111122 
NERRS,ioos:station:NOAA.NERRS:gndbcwq:1,2016-02-08T01:00:00Z,30.3836,-88.4364,0.72,17.4,1111122 
NERRS,ioos:station:NOAA.NERRS:gndbcwq:1,2016-02-08T02:00:00Z,30.3836,-88.4364,0.76,18.6,1111122 
NERRS,ioos:station:NOAA.NERRS:gndbcwq:1,2016-02-08T03:00:00Z,30.3836,-88.4364,0.77,19.1,1111122 
NERRS,ioos:station:NOAA.NERRS:gndbcwq:1,2016-02-08T04:00:00Z,30.3836,-88.4364,0.79,19.4,1111122 
NERRS,ioos:station:NOAA.NERRS:gndbcwq:1,2016-02-08T05:00:00Z,30.3836,-88.4364,0.77,17.2,1111122 
NERRS,ioos:station:NOAA.NERRS:gndbcwq:1,2016-02-08T06:00:00Z,30.3836,-88.4364,0.72,17.4,1111122 
NERRS,ioos:station:NOAA.NERRS:gndbcwq:1,2016-02-08T07:00:00Z,30.3836,-88.4364,0.64,17.6,1111122 
NERRS,ioos:station:NOAA.NERRS:gndbcwq:1,2016-02-08T08:00:00Z,30.3836,-88.4364,0.53,16.7,1111122 
NERRS,ioos:station:NOAA.NERRS:gndbcwq:1,2016-02-08T09:00:00Z,30.3836,-88.4364,0.4,15.9,1111122 
NERRS,ioos:station:NOAA.NERRS:gndbcwq:1,2016-02-08T10:00:00Z,30.3836,-88.4364,0.28,13.1,1111122 
NERRS,ioos:station:NOAA.NERRS:gndbcwq:1,2016-02-08T11:00:00Z,30.3836,-88.4364,0.18,12.7,1111122 
NERRS,ioos:station:NOAA.NERRS:gndbcwq:1,2016-02-08T12:00:00Z,30.3836,-88.4364,0.12,12.1,1111122 
NERRS,ioos:station:NOAA.NERRS:gndbcwq:1,2016-02-08T13:00:00Z,30.3836,-88.4364,0.08,11.8,1111122 
NERRS,ioos:station:NOAA.NERRS:gndbcwq:1,2016-02-08T14:00:00Z,30.3836,-88.4364,0.07,12.0,1111122 
NERRS,ioos:station:NOAA.NERRS:gndbcwq:1,2016-02-08T15:00:00Z,30.3836,-88.4364,0.12,12.1,1111122 
NERRS,ioos:station:NOAA.NERRS:gndbcwq:1,2016-02-08T16:00:00Z,30.3836,-88.4364,0.13,12.2,1111122 
NERRS,ioos:station:NOAA.NERRS:gndbcwq:1,2016-02-08T17:00:00Z,30.3836,-88.4364,0.13,12.2,1111122 
NERRS,ioos:station:NOAA.NERRS:gndbcwq:1,2016-02-08T18:00:00Z,30.3836,-88.4364,0.15,12.7,1111122 
NERRS,ioos:station:NOAA.NERRS:gndbcwq:1,2016-02-08T19:00:00Z,30.3836,-88.4364,0.11,12.4,1111122 
NERRS,ioos:station:NOAA.NERRS:gndbcwq:1,2016-02-08T20:00:00Z,30.3836,-88.4364,0.1,12.2,1111122 
NERRS,ioos:station:NOAA.NERRS:gndbcwq:1,2016-02-08T21:00:00Z,30.3836,-88.4364,0.07,12.4,1111122 
NERRS,ioos:station:NOAA.NERRS:gndbcwq:1,2016-02-08T22:00:00Z,30.3836,-88.4364,0.07,12.2,1111122 
NERRS,ioos:station:NOAA.NERRS:gndbcwq:1,2016-02-08T23:00:00Z,30.3836,-88.4364,0.07,12.2,1111122 
NERRS,ioos:station:NOAA.NERRS:gndbcwq:1,2016-02-09T00:00:00Z,30.3836,-88.4364,0.09,11.9,1111122 
NERRS,ioos:station:NOAA.NERRS:gndbcwq:1,2016-02-09T01:00:00Z,30.3836,-88.4364,0.17,12.3,1111122 
NERRS,ioos:station:NOAA.NERRS:gndbcwq:1,2016-02-09T02:00:00Z,30.3836,-88.4364,0.24,12.6,1111122 
NERRS,ioos:station:NOAA.NERRS:gndbcwq:1,2016-02-09T03:00:00Z,30.3836,-88.4364,0.28,13.4,1111122 
NERRS,ioos:station:NOAA.NERRS:gndbcwq:1,2016-02-09T04:00:00Z,30.3836,-88.4364,0.28,12.5,1111122 
NERRS,ioos:station:NOAA.NERRS:gndbcwq:1,2016-02-09T05:00:00Z,30.3836,-88.4364,0.33,14.1,1111122 
NERRS,ioos:station:NOAA.NERRS:gndbcwq:1,2016-02-09T06:00:00Z,30.3836,-88.4364,0.4,15.2,1111122 
NERRS,ioos:station:NOAA.NERRS:gndbcwq:1,2016-02-09T07:00:00Z,30.3836,-88.4364,0.47,15.8,1111122 
NERRS,ioos:station:NOAA.NERRS:gndbcwq:1,2016-02-09T08:00:00Z,30.3836,-88.4364,0.43,14.2,1111122 
NERRS,ioos:station:NOAA.NERRS:gndbcwq:1,2016-02-09T09:00:00Z,30.3836,-88.4364,0.29,13.0,1111122 
NERRS,ioos:station:NOAA.NERRS:gndbcwq:1,2016-02-09T10:00:00Z,30.3836,-88.4364,0.2,12.8,1111122 
NERRS,ioos:station:NOAA.NERRS:gndbcwq:1,2016-02-09T11:00:00Z,30.3836,-88.4364,0.13,10.9,1111122 
NERRS,ioos:station:NOAA.NERRS:gndbcwq:1,2016-02-09T12:00:00Z,30.3836,-88.4364,0.09,9.4,1111122 
NERRS,ioos:station:NOAA.NERRS:gndbcwq:1,2016-02-09T13:00:00Z,30.3836,-88.4364,0.09,9.1,1111122 
NERRS,ioos:station:NOAA.NERRS:gndbcwq:1,2016-02-09T14:00:00Z,30.3836,-88.4364,0.09,8.5,1111122 
NERRS,ioos:station:NOAA.NERRS:gndbcwq:1,2016-02-09T15:00:00Z,30.3836,-88.4364,0.09,0.2,1111122 
NERRS,ioos:station:NOAA.NERRS:gndbcwq:1,2016-02-09T16:00:00Z,30.3836,-88.4364,0.09,0.1,1111122 
NERRS,ioos:station:NOAA.NERRS:gndbcwq:1,2016-02-09T18:00:00Z,30.3836,-88.4364,0.07,8.1,1111122 
NERRS,ioos:station:NOAA.NERRS:gndbcwq:1,2016-02-09T19:00:00Z,30.3836,-88.4364,0.09,9.2,1111122 
NERRS,ioos:station:NOAA.NERRS:gndbcwq:1,2016-02-09T20:00:00Z,30.3836,-88.4364,0.16,10.9,1111122 
NERRS,ioos:station:NOAA.NERRS:gndbcwq:1,2016-02-09T21:00:00Z,30.3836,-88.4364,0.22,11.2,1111122 
NERRS,ioos:station:NOAA.NERRS:gndbcwq:1,2016-02-09T22:00:00Z,30.3836,-88.4364,0.26,12.6,1111122 
NERRS,ioos:station:NOAA.NERRS:gndbcwq:1,2016-02-09T23:00:00Z,30.3836,-88.4364,0.28,13.1,1111122 
NERRS,ioos:station:NOAA.NERRS:gndbcwq:1,2016-02-10T00:00:00Z,30.3836,-88.4364,0.25,12.5,1111122 
NERRS,ioos:station:NOAA.NERRS:gndbcwq:1,2016-02-10T01:00:00Z,30.3836,-88.4364,0.28,12.6,1111122 
NERRS,ioos:station:NOAA.NERRS:gndbcwq:1,2016-02-10T02:00:00Z,30.3836,-88.4364,0.33,13.2,1111122 
NERRS,ioos:station:NOAA.NERRS:gndbcwq:1,2016-02-10T03:00:00Z,30.3836,-88.4364,0.37,13.8,1111122 
NERRS,ioos:station:NOAA.NERRS:gndbcwq:1,2016-02-10T04:00:00Z,30.3836,-88.4364,0.44,15.3,1111122 
NERRS,ioos:station:NOAA.NERRS:gndbcwq:1,2016-02-10T05:00:00Z,30.3836,-88.4364,0.47,14.5,1111122 
NERRS,ioos:station:NOAA.NERRS:gndbcwq:1,2016-02-10T06:00:00Z,30.3836,-88.4364,0.43,11.9,1111122 
NERRS,ioos:station:NOAA.NERRS:gndbcwq:1,2016-02-10T07:00:00Z,30.3836,-88.4364,0.43,11.6,1111122 
NERRS,ioos:station:NOAA.NERRS:gndbcwq:1,2016-02-10T08:00:00Z,30.3836,-88.4364,0.4,11.2,1111122 
NERRS,ioos:station:NOAA.NERRS:gndbcwq:1,2016-02-10T09:00:00Z,30.3836,-88.4364,0.34,10.4,1111122 
NERRS,ioos:station:NOAA.NERRS:gndbcwq:1,2016-02-10T10:00:00Z,30.3836,-88.4364,0.29,9.2,1111122 
NERRS,ioos:station:NOAA.NERRS:gndbcwq:1,2016-02-10T11:00:00Z,30.3836,-88.4364,0.23,7.3,1111122 
NERRS,ioos:station:NOAA.NERRS:gndbcwq:1,2016-02-10T12:00:00Z,30.3836,-88.4364,0.16,6.5,1111122 
NERRS,ioos:station:NOAA.NERRS:gndbcwq:1,2016-02-10T13:00:00Z,30.3836,-88.4364,0.16,5.8,1111122 
NERRS,ioos:station:NOAA.NERRS:gndbcwq:1,2016-02-10T14:00:00Z,30.3836,-88.4364,0.17,5.0,1111122 
NERRS,ioos:station:NOAA.NERRS:gndbcwq:1,2016-02-10T15:00:00Z,30.3836,-88.4364,0.2,7.4,1111122 
NERRS,ioos:station:NOAA.NERRS:gndbcwq:1,2016-02-10T16:00:00Z,30.3836,-88.4364,0.19,7.8,1111122 
NERRS,ioos:station:NOAA.NERRS:gndbcwq:1,2016-02-10T17:00:00Z,30.3836,-88.4364,0.23,7.9,1111122 
NERRS,ioos:station:NOAA.NERRS:gndbcwq:1,2016-02-10T18:00:00Z,30.3836,-88.4364,0.26,9.1,1111122 
NERRS,ioos:station:NOAA.NERRS:gndbcwq:1,2016-02-10T19:00:00Z,30.3836,-88.4364,0.3,8.9,1111122 
NERRS,ioos:station:NOAA.NERRS:gndbcwq:1,2016-02-10T20:00:00Z,30.3836,-88.4364,0.33,12.0,1111122 
NERRS,ioos:station:NOAA.NERRS:gndbcwq:1,2016-02-10T21:00:00Z,30.3836,-88.4364,0.31,11.3,1111122 
NERRS,ioos:station:NOAA.NERRS:gndbcwq:1,2016-02-10T22:00:00Z,30.3836,-88.4364,0.27,10.6,1111122 
NERRS,ioos:station:NOAA.NERRS:gndbcwq:1,2016-02-10T23:00:00Z,30.3836,-88.4364,0.23,10.6,1111122 
NERRS,ioos:station:NOAA.NERRS:gndbcwq:1,2016-02-11T00:00:00Z,30.3836,-88.4364,0.23,10.9,1111122 
NERRS,ioos:station:NOAA.NERRS:gndbcwq:1,2016-02-11T01:00:00Z,30.3836,-88.4364,0.26,11.1,1111122 
NERRS,ioos:station:NOAA.NERRS:gndbcwq:1,2016-02-11T02:00:00Z,30.3836,-88.4364,0.3,11.2,1111122 
NERRS,ioos:station:NOAA.NERRS:gndbcwq:1,2016-02-11T03:00:00Z,30.3836,-88.4364,0.34,11.4,1111122 
NERRS,ioos:station:NOAA.NERRS:gndbcwq:1,2016-02-11T04:00:00Z,30.3836,-88.4364,0.42,15.0,1111122 
NERRS,ioos:station:NOAA.NERRS:gndbcwq:1,2016-02-11T05:00:00Z,30.3836,-88.4364,0.47,16.0,1111122 
NERRS,ioos:station:NOAA.NERRS:gndbcwq:1,2016-02-11T06:00:00Z,30.3836,-88.4364,0.49,14.8,1111122 
NERRS,ioos:station:NOAA.NERRS:gndbcwq:1,2016-02-11T07:00:00Z,30.3836,-88.4364,0.44,12.9,1111122 
NERRS,ioos:station:NOAA.NERRS:gndbcwq:1,2016-02-11T08:00:00Z,30.3836,-88.4364,0.43,12.9,1111122 
NERRS,ioos:station:NOAA.NERRS:gndbcwq:1,2016-02-11T09:00:00Z,30.3836,-88.4364,0.42,12.8,1111122 
NERRS,ioos:station:NOAA.NERRS:gndbcwq:1,2016-02-11T10:00:00Z,30.3836,-88.4364,0.34,13.0,1111122 
NERRS,ioos:station:NOAA.NERRS:gndbcwq:1,2016-02-11T11:00:00Z,30.3836,-88.4364,0.26,12.2,1111122 
NERRS,ioos:station:NOAA.NERRS:gndbcwq:1,2016-02-11T12:00:00Z,30.3836,-88.4364,0.23,9.0,1111122 
NERRS,ioos:station:NOAA.NERRS:gndbcwq:1,2016-02-11T13:00:00Z,30.3836,-88.4364,0.23,8.4,1111122 
NERRS,ioos:station:NOAA.NERRS:gndbcwq:1,2016-02-11T14:00:00Z,30.3836,-88.4364,0.27,10.9,1111122 
NERRS,ioos:station:NOAA.NERRS:gndbcwq:1,2016-02-11T15:00:00Z,30.3836,-88.4364,0.31,12.8,1111122 
NERRS,ioos:station:NOAA.NERRS:gndbcwq:1,2016-02-11T16:00:00Z,30.3836,-88.4364,0.35,13.2,1111122 
NERRS,ioos:station:NOAA.NERRS:gndbcwq:1,2016-02-11T17:00:00Z,30.3836,-88.4364,0.37,13.8,1111122 
NERRS,ioos:station:NOAA.NERRS:gndbcwq:1,2016-02-11T18:00:00Z,30.3836,-88.4364,0.36,10.0,1111122 
NERRS,ioos:station:NOAA.NERRS:gndbcwq:1,2016-02-11T19:00:00Z,30.3836,-88.4364,0.37,10.5,1111122 
NERRS,ioos:station:NOAA.NERRS:gndbcwq:1,2016-02-11T20:00:00Z,30.3836,-88.4364,0.4,14.2,1111122 
NERRS,ioos:station:NOAA.NERRS:gndbcwq:1,2016-02-11T21:00:00Z,30.3836,-88.4364,0.42,13.7,1111122 
NERRS,ioos:station:NOAA.NERRS:gndbcwq:1,2016-02-11T22:00:00Z,30.3836,-88.4364,0.43,12.0,1111122 
NERRS,ioos:station:NOAA.NERRS:gndbcwq:1,2016-02-11T23:00:00Z,30.3836,-88.4364,0.41,11.4,1111122 
NERRS,ioos:station:NOAA.NERRS:gndbcwq:1,2016-02-12T00:00:00Z,30.3836,-88.4364,0.41,11.6,1111122 
NERRS,ioos:station:NOAA.NERRS:gndbcwq:1,2016-02-12T01:00:00Z,30.3836,-88.4364,0.41,11.6,1111122 
NERRS,ioos:station:NOAA.NERRS:gndbcwq:1,2016-02-12T02:00:00Z,30.3836,-88.4364,0.45,12.1,1111122 
NERRS,ioos:station:NOAA.NERRS:gndbcwq:1,2016-02-12T03:00:00Z,30.3836,-88.4364,0.5,13.7,1111122 
NERRS,ioos:station:NOAA.NERRS:gndbcwq:1,2016-02-12T04:00:00Z,30.3836,-88.4364,0.49,12.1,1111122 